Regional Weather Roundup
Issued by NWS

Home | Current Version | Previous Version | Text Only | Print | Product List | Glossary On
Versions: 1 2 3 4 5 6 7 8 9 10 11 12 13 14 15 16 17 18 19 20 21 22 23 24 25 26 27 28 29 30 31 32 33 34 35 36 37 38 39 40 41 42 43 44 45 46 47 48 49 50
000
ASUS42 KFFC 050703
RWRGA
WEATHER ROUNDUP FOR GEORGIA
NATIONAL WEATHER SERVICE PEACHTREE CITY GA
300 AM EDT THU MAY 05 2016

NOTE: "FAIR" INDICATES FEW OR NO CLOUDS BELOW 12,000 FEET WITH NO
SIGNIFICANT WEATHER AND/OR OBSTRUCTIONS TO VISIBILITY.

* = USE WITH CAUTION. THE STATIONS MARKED WITH AN ASTERISK MAY NOT
REPORT WEATHER SUCH AS PRECIPITATION, FOG, OR THUNDER AND ARE NOT
QUALITY CONTROLLED BY NWS.

THE REMARK "TC" DENOTES TEMPERATURE READING IN DEGREES CELSIUS.

GAZ001>058-050800-
NORTH GEORGIA

CITY           SKY/WX    TMP DP  RH WIND       PRES   REMARKS
ATLANTA        CLEAR     53  48  83 NW10      29.74F
ATHENS         CLEAR     53  50  89 NW12G17   29.69F
CHAMBLEE       CLEAR     52  50  93 W7        29.74F
PEACHTREE CITY CLEAR     53  52  96 W3        29.76F
ROME           CLEAR     50  48  93 NW5       29.77F
WEST ATLANTA   CLEAR     53  32  44 NW5       29.74F
GAINESVILLE    CLEAR     50  47  89 W7        29.72F
CARTERSVILLE   CLEAR     50  50 100 CALM      29.77F


CITY           SKY/WX    TMP DP  RH WIND       PRES   REMARKS
DALTON*        PTCLDY    46  46 100 CALM      29.77F
MARIETTA       CLEAR     51  49  92 W7        29.74F
CANTON*        CLEAR     48  46  93 NW9       29.75F
BLAIRSVILLE*     N/A    N/A N/A N/A MISG      29.73F
$$

GAZ059>098-102>109-050800-
CENTRAL GEORGIA

CITY           SKY/WX    TMP DP  RH WIND       PRES   REMARKS
AUGUSTA-BUSH   PTCLDY    60  48  64 W10       29.62F
AUGUSTA-DANIEL CLOUDY    60  46  59 W9        29.63F
COLUMBUS       PTCLDY    57  52  83 N7        29.77F
MACON          CLEAR     57  50  77 W10       29.72F
ROBINS AFB     CLEAR     58  50  75 NW15      29.71F


CITY           SKY/WX    TMP DP  RH WIND       PRES   REMARKS
LAGRANGE*      PTCLDY    55  55 100 CALM      29.78F
SYLVANIA*      CLEAR     58  53  82 NW5       29.66F
MILLEDGEVILLE* CLEAR     59  50  72 W12       29.70F
$$

GAZ099>101-110>166-050800-
SOUTH GEORGIA

CITY           SKY/WX    TMP DP  RH WIND       PRES   REMARKS
SAVANNAH       CLEAR     59  48  67 W9        29.65F
VALDOSTA       PTCLDY    56  52  86 CALM      29.72F
ALMA           CLEAR     59  50  72 NW6       29.69F
ST SIMONS      CLEAR     62  49  62 W6        29.67F
FT STEWART     CLEAR     60  47  62 W8        29.63F
ALBANY         CLEAR     60  50  69 NW6       29.77F
HUNTER AFB     CLEAR     56  50  80 W8        29.62F
MOODY AFB      PTCLDY    60  49  66 W7        29.71F
BRUNSWICK      CLEAR     64  54  68 W5        29.68F


CITY           SKY/WX    TMP DP  RH WIND       PRES   REMARKS
BAINBRIDGE*    CLEAR     61  52  72 W8        29.77F
MOULTRIE*      CLEAR     63  50  63 NW7       29.75F
VIDALIA*       CLEAR     59  48  67 CALM      29.67F
WAYCROSS*      CLEAR     59  50  72 W5        29.69F
DOUGLAS*       CLEAR     63  50  63 W6        29.71F
$$



USA.gov is the U.S. government's official web portal to all federal, state and local government web resources and services.